Location: Dehesa de la Cepeda
(40.6574°N, 4.3013°W)
Time: 18:29:49
(UTC+00:00)

Cosmos 1315 Rocket - Pass Details

Date: 05 July 2020
Orbit: 530 x 568 km, 81.2° (Epoch: 05 August)

Event Time Altitude Azimuth Distance (km) Brightness Sun altitude
Rises 22:22:37 0° 347° (NNW) 2,754 7.7 -20.9°
Reaches altitude 10° 22:24:49 10° 344° (NNW) 1,859 6.6 -21.1°
Maximum altitude 22:28:52 64° 264° (W) 629 3.1 -21.4°
Enters shadow 22:29:34 53° 215° (SW) 699 3.1 -21.5°
